Temp
6 6 6 6 6 6 6 6 6 6 6 6 6 6 5 5 4 3 3 3 3 3 4 5 5 5 5 5 4 3 2 2 2 2 2 2 3 3 3 4 4 5
5 5 5 6 6 5 5 5 5 6 6 5 5 5 5 5 5 5 4 3 3 3 3 4 4 4 5 5 4 4 3 2 2 2 1 2 2 2 2 3 3 4
4 4 5 5 5 5 5 5 5 5 5 5 5 5 5 5 5 5 5 5 4 4 4 4 4 4 4 4 4 4 4 3 3 2 2 1 1 1 2 2 3 3
3 3 4 4 4 4 4 4 5 5 4 4 4 4 4 4 5 5 5 5 5 5 5 4 4 4 4 4 4 4 3 3 3 3 2 2 1 1 1 1 2 2
3 3 3 3 3 3 3 4 4 4 4 4 4 4 4 4 4 4 4 4 5 5 5 5 5 5 4 4 4 4 3 3 3 2 2 2 2 1 1 1 1 1
2 2 2 2 2 2 2 2 2 3 3 3 3 3 3 3 3 4 4 4 4 4 4 4 4 5 4 4 4 4 3 3 3 2 2 2 2 2 1 1 1 1
1 1 1 1 1 1 0 1 1 1 1 1 2 2 2 2 3 3 3 3 3 3 3 4 4 4 4 4 4 4 4 3 3 2 2 1 1 1 1 1 1 1
0 0 0 0 0 0 0 -0 -0 -0 -0 -0 -0 0 1 1 1 1 2 2 2 2 2 2 3 3 3 4 4 4 4 4 3 2 2 1 1 1 1 1 1 1
-0 -0 -0 -0 -0 -0 -0 -0 -0 -0 -1 -1 -1 -1 -1 -0 0 1 1 1 1 1 1 1 1 2 2 2 3 3 3 4 3 2 2 1 1 1 1 1 0 0
-0 -0 -0 -0 -0 -0 -0 -0 -0 -0 -0 -0 -1 -1 -1 -1 -1 -1 -0 0 1 1 1 1 1 1 1 1 1 1 1 2 2 2 1 1 1 1 1 1 1 0
-0 -0 -0 -0 -0 -0 -0 -0 -0 -0 -0 -0 -0 -0 -0 -0 -1 -1 -1 -1 -1 -0 0 1 0 0 0 0 0 -0 -0 0 0 1 1 0 0 0 0 1 1 1
-0 -0 -1 -1 -1 -1 -0 -0 -0 -0 -0 -0 -0 -0 0 0 0 -0 -0 -1 -1 -1 -1 -0 -0 0 -0 -0 -0 -0 -0 -0 -0 -0 0 0 0 -0 0 0 1 1
-1 -1 -1 -1 -1 -1 -1 -1 -1 -1 -1 -1 -1 -1 -0 -0 -0 -0 0 -0 -0 -1 -1 -1 -1 -1 -0 -0 -1 -1 -1 -0 -0 -0 -0 -0 -0 0 0 0 1 1
-1 -1 -1 -1 -1 -1 -1 -1 -1 -2 -1 -1 -1 -1 -1 -1 -1 -1 -0 -0 -0 -0 -0 -1 -1 -1 -1 -1 -1 -1 -1 -1 -1 -1 -1 -0 -0 -0 -0 0 0 0
-2 -2 -2 -2 -2 -2 -2 -2 -2 -2 -2 -2 -2 -2 -2 -2 -2 -1 -1 -1 -1 -1 -1 -1 -1 -1 -1 -1 -1 -1 -1 -1 -1 -1 -1 -1 -1 -0 -1 -0 -0 -0
-3 -3 -3 -3 -2 -2 -2 -2 -2 -2 -2 -2 -2 -2 -2 -2 -2 -2 -2 -2 -2 -1 -1 -1 -1 -1 -1 -1 -2 -2 -2 -2 -2 -2 -2 -2 -1 -1 -1 -1 -1 -1
-4 -4 -4 -3 -3 -3 -3 -3 -3 -2 -2 -2 -2 -2 -2 -2 -2 -2 -2 -2 -2 -2 -2 -2 -2 -1 -1 -1 -2 -2 -2 -2 -2 -2 -2 -2 -2 -2 -2 -1 -1 -1
-5 -5 -5 -4 -4 -4 -4 -4 -3 -3 -3 -2 -2 -2 -2 -2 -2 -2 -2 -2 -3 -3 -2 -2 -2 -2 -2 -2 -2 -2 -2 -2 -2 -2 -2 -2 -2 -2 -2 -2 -2 -1
-6 -6 -6 -5 -5 -5 -5 -5 -5 -4 -4 -3 -3 -3 -2 -2 -2 -2 -2 -3 -3 -3 -3 -3 -3 -2 -2 -3 -3 -2 -2 -2 -2 -2 -2 -2 -2 -2 -2 -2 -2 -2
-7 -7 -7 -6 -6 -6 -6 -6 -6 -6 -5 -5 -5 -5 -4 -3 -3 -3 -3 -3 -3 -3 -3 -3 -3 -3 -3 -3 -3 -3 -3 -3 -3 -3 -2 -2 -2 -2 -2 -2 -2 -2
-7 -7 -7 -7 -7 -7 -8 -7 -7 -7 -7 -7 -8 -7 -7 -6 -5 -5 -5 -4 -4 -4 -4 -4 -4 -3 -3 -3 -4 -4 -4 -4 -4 -3 -3 -3 -2 -2 -2 -2 -2 -2
-8 -8 -8 -8 -8 -9 -9 -9 -9 -9 -9 -9 -9 -9 -9 -8 -8 -7 -7 -6 -6 -5 -6 -5 -4 -4 -4 -4 -4 -4 -5 -5 -6 -5 -5 -4 -3 -3 -3 -2 -2 -3
-8 -9 -9 -9 -9 -10 -10 -10 -10 -10 -10 -10 -11 -11 -10 -10 -9 -9 -9 -8 -8 -7 -7 -7 -6 -5 -4 -4 -4 -4 -5 -6 -7 -7 -7 -6 -5 -4 -3 -3 -3 -3
-8 -9 -9 -10 -10 -10 -11 -11 -11 -11 -11 -12 -12 -12 -12 -12 -12 -12 -11 -10 -10 -10 -9 -9 -8 -6 -6 -5 -5 -5 -5 -5 -6 -7 -8 -8 -7 -6 -5 -4 -3 -3
-9 -9 -10 -11 -11 -11 -11 -12 -12 -12 -12 -13 -13 -14 -14 -14 -14 -14 -14 -13 -13 -13 -13 -13 -12 -10 -9 -9 -8 -8 -7 -7 -8 -8 -9 -8 -8 -7 -7 -6 -5 -4
-9 -10 -11 -11 -12 -12 -12 -12 -13 -13 -13 -14 -15 -15 -15 -15 -15 -16 -16 -16 -15 -16 -16 -15 -15 -14 -13 -13 -13 -12 -11 -11 -11 -11 -10 -9 -8 -8 -8 -7 -7 -6
Height
1485 1484 1482 1481 1480 1478 1477 1476 1476 1475 1474 1473 1472 1472 1471 1470 1469 1468 1468 1468 1468 1467 1465 1464 1463 1462 1462 1461 1461 1461 1462 1463 1464 1465 1466 1467 1468 1470 1471 1472 1473 1474
1485 1484 1483 1482 1480 1479 1477 1476 1475 1475 1474 1473 1472 1472 1471 1469 1468 1467 1467 1466 1466 1465 1464 1462 1460 1459 1459 1459 1459 1459 1459 1459 1460 1461 1462 1463 1464 1465 1466 1468 1469 1470
1485 1484 1483 1482 1481 1479 1478 1477 1476 1475 1474 1473 1472 1471 1470 1468 1467 1466 1465 1465 1464 1464 1463 1460 1458 1457 1456 1455 1455 1456 1456 1456 1456 1458 1458 1458 1460 1461 1461 1463 1464 1465
1484 1483 1482 1481 1481 1480 1479 1477 1476 1475 1474 1473 1471 1470 1469 1467 1466 1465 1464 1463 1462 1462 1461 1459 1457 1455 1453 1452 1452 1452 1452 1453 1453 1454 1454 1454 1456 1456 1457 1459 1459 1459
1484 1483 1482 1482 1481 1480 1479 1477 1476 1475 1474 1473 1471 1470 1468 1467 1465 1464 1462 1461 1460 1460 1459 1458 1455 1453 1451 1450 1449 1449 1449 1449 1450 1451 1450 1450 1451 1452 1452 1454 1454 1454
1484 1483 1482 1481 1480 1479 1478 1476 1475 1474 1473 1472 1471 1470 1468 1467 1465 1463 1461 1459 1458 1457 1456 1455 1453 1451 1449 1447 1446 1446 1446 1446 1446 1447 1446 1446 1447 1448 1448 1449 1449 1449
1483 1482 1482 1481 1480 1478 1477 1475 1474 1473 1472 1472 1471 1470 1468 1466 1465 1463 1461 1459 1457 1455 1454 1452 1451 1449 1447 1444 1443 1442 1442 1442 1442 1442 1442 1443 1443 1444 1444 1444 1444 1443
1481 1481 1480 1480 1478 1477 1475 1473 1472 1471 1470 1470 1469 1468 1466 1465 1464 1462 1461 1459 1457 1455 1453 1451 1449 1446 1444 1442 1440 1440 1439 1439 1439 1438 1438 1439 1439 1439 1440 1440 1439 1438
1480 1480 1479 1477 1476 1474 1473 1471 1470 1469 1468 1467 1466 1465 1464 1463 1462 1461 1460 1458 1456 1453 1451 1449 1447 1445 1442 1440 1438 1438 1437 1436 1436 1435 1435 1435 1435 1435 1435 1435 1434 1433
1479 1478 1477 1476 1474 1472 1471 1469 1468 1467 1466 1465 1464 1463 1462 1462 1461 1460 1458 1456 1454 1451 1449 1447 1445 1443 1441 1439 1438 1436 1435 1434 1433 1432 1431 1431 1430 1430 1430 1430 1429 1428
1479 1477 1476 1474 1473 1472 1470 1468 1467 1465 1464 1463 1461 1460 1459 1458 1457 1456 1455 1453 1451 1448 1446 1444 1442 1440 1439 1437 1436 1435 1433 1432 1430 1429 1427 1426 1426 1425 1425 1425 1424 1423
1477 1476 1474 1473 1472 1470 1469 1468 1466 1464 1463 1461 1460 1457 1455 1454 1452 1451 1449 1447 1446 1444 1442 1441 1439 1438 1436 1435 1434 1432 1431 1429 1427 1426 1424 1422 1421 1420 1420 1419 1419 1418
1475 1473 1472 1470 1469 1467 1466 1465 1463 1462 1461 1459 1458 1455 1453 1451 1449 1447 1445 1443 1441 1439 1438 1437 1435 1434 1433 1432 1430 1429 1428 1426 1424 1423 1421 1419 1418 1416 1415 1414 1413 1413
1474 1472 1470 1468 1466 1464 1463 1461 1459 1458 1457 1455 1454 1451 1449 1447 1445 1443 1441 1439 1437 1435 1433 1432 1431 1430 1430 1428 1427 1426 1424 1423 1421 1419 1417 1416 1414 1413 1411 1410 1409 1408
1472 1470 1468 1467 1464 1462 1460 1457 1455 1453 1451 1449 1448 1446 1444 1443 1441 1439 1436 1434 1432 1430 1429 1428 1426 1426 1426 1425 1424 1422 1421 1419 1417 1416 1414 1412 1410 1409 1407 1406 1405 1404
1468 1466 1465 1463 1461 1459 1457 1455 1452 1450 1447 1445 1443 1441 1439 1437 1435 1434 1432 1430 1428 1426 1424 1423 1422 1421 1420 1420 1420 1419 1417 1415 1413 1411 1410 1408 1406 1404 1403 1402 1401 1400
1463 1462 1460 1458 1457 1455 1453 1451 1449 1447 1445 1442 1440 1437 1435 1432 1430 1428 1426 1425 1423 1421 1419 1418 1416 1416 1415 1414 1414 1414 1413 1411 1409 1407 1405 1403 1402 1400 1398 1397 1396 1395
1459 1457 1455 1453 1452 1450 1448 1446 1444 1442 1440 1438 1435 1433 1431 1428 1426 1423 1421 1420 1418 1415 1413 1412 1410 1410 1409 1408 1407 1407 1407 1406 1404 1402 1400 1398 1396 1395 1393 1392 1391 1390
1455 1452 1450 1448 1446 1444 1442 1439 1437 1435 1433 1431 1429 1427 1425 1422 1420 1418 1416 1414 1412 1410 1408 1406 1404 1403 1402 1402 1401 1400 1400 1399 1397 1396 1394 1392 1390 1389 1388 1386 1385 1384
1450 1447 1445 1442 1440 1437 1435 1432 1430 1428 1425 1423 1421 1419 1416 1414 1413 1411 1409 1407 1406 1404 1402 1399 1398 1397 1396 1394 1393 1392 1392 1392 1390 1388 1386 1384 1383 1382 1382 1380 1379 1379
1445 1442 1439 1436 1434 1431 1429 1426 1424 1421 1418 1416 1414 1411 1408 1406 1404 1402 1400 1398 1397 1396 1394 1391 1390 1391 1390 1388 1386 1384 1383 1383 1381 1379 1377 1376 1375 1375 1374 1373 1373 1372
1440 1436 1433 1430 1428 1425 1422 1419 1417 1414 1412 1410 1407 1404 1401 1398 1396 1393 1391 1389 1388 1387 1384 1381 1381 1382 1382 1381 1380 1378 1376 1374 1372 1370 1369 1367 1365 1365 1366 1365 1365 1365
1434 1430 1427 1424 1421 1419 1415 1413 1410 1407 1405 1403 1400 1396 1393 1390 1387 1384 1382 1380 1378 1377 1375 1372 1370 1372 1372 1372 1372 1371 1369 1366 1363 1361 1359 1357 1356 1355 1356 1356 1356 1357
1427 1424 1421 1418 1415 1412 1409 1406 1403 1400 1397 1395 1392 1388 1384 1381 1378 1375 1372 1370 1368 1366 1364 1362 1359 1358 1360 1360 1360 1361 1361 1358 1355 1353 1350 1348 1346 1345 1345 1346 1347 1347
1421 1418 1415 1412 1409 1405 1402 1399 1395 1392 1390 1387 1384 1380 1376 1372 1370 1366 1362 1360 1358 1356 1354 1352 1348 1345 1346 1347 1347 1348 1349 1348 1346 1343 1340 1338 1337 1336 1335 1335 1336 1337
1415 1411 1408 1405 1402 1398 1395 1392 1388 1385 1382 1378 1375 1372 1368 1364 1361 1358 1354 1350 1348 1346 1344 1342 1338 1335 1334 1335 1335 1335 1336 1337 1336 1333 1331 1329 1328 1327 1326 1325 1326 1326
Wind_Speed
18 18 18 17 17 17 16 16 16 17 17 18 17 17 16 14 12 12 14 17 18 17 15 14 15 15 16 15 15 15 17 19 23 27 31 36 39 41 42 44 46 48
15 15 15 16 16 16 16 16 16 16 16 17 17 17 17 17 16 15 14 14 16 17 16 14 14 14 15 16 17 17 17 18 20 22 26 32 36 38 41 42 44 46
15 15 14 14 15 15 16 16 16 16 16 16 16 17 17 17 17 17 16 15 15 16 16 15 14 14 14 15 16 18 19 19 19 19 22 27 31 35 38 40 42 45
18 17 16 15 14 14 14 14 14 15 16 16 17 17 17 18 18 17 17 17 17 16 15 15 15 14 14 14 15 17 18 20 20 19 21 24 26 30 34 37 41 43
20 19 19 17 16 15 14 14 14 14 15 16 17 18 18 19 19 19 19 18 18 18 17 16 15 14 14 14 15 16 18 19 19 20 22 23 24 26 29 33 37 41
20 20 20 20 19 18 18 17 16 16 15 16 16 17 18 18 19 20 20 20 20 20 20 19 17 16 14 14 14 15 16 18 19 19 21 23 24 25 26 29 33 37
21 21 21 21 21 21 21 20 19 19 18 18 18 18 19 19 19 20 20 21 21 21 22 22 21 19 17 16 16 16 16 17 18 19 21 23 23 24 25 26 29 33
23 23 23 23 23 23 23 22 22 22 21 20 20 20 21 21 22 21 21 21 21 20 21 21 22 22 21 20 19 18 18 17 17 18 20 22 24 25 25 26 28 31
23 24 25 26 26 26 26 26 26 25 24 24 23 23 22 22 22 23 24 24 23 22 22 21 21 22 22 22 22 21 20 19 19 19 21 22 23 25 26 26 28 30
23 24 25 26 27 28 28 29 29 29 29 29 28 27 26 25 24 24 24 25 25 26 25 25 23 22 22 22 23 23 23 22 21 21 22 23 23 25 26 27 29 31
20 22 23 25 26 27 28 28 29 30 31 32 32 33 32 31 30 29 27 26 26 26 27 28 28 26 25 24 23 23 24 24 24 24 24 25 25 26 27 28 30 31
22 23 24 25 26 26 27 27 28 29 30 30 32 34 35 35 36 36 35 33 31 29 28 28 29 29 29 28 26 25 25 26 26 27 27 27 27 27 27 28 30 32
25 26 28 29 30 31 30 30 30 31 31 31 31 33 34 35 36 37 38 38 38 36 33 31 30 30 31 31 30 28 28 28 28 29 29 30 30 30 30 29 30 31
26 27 29 31 33 35 36 36 36 36 36 35 35 36 36 36 37 37 38 39 40 40 39 38 35 32 31 31 32 31 30 30 30 30 31 32 32 32 32 32 32 32
28 29 30 32 33 35 37 38 39 40 41 41 41 40 40 40 40 40 40 41 41 41 42 42 42 40 36 33 32 32 32 32 32 32 32 32 34 34 34 34 35 35
33 33 34 35 35 36 38 39 40 41 43 44 44 44 44 45 45 44 44 44 44 44 44 44 45 45 43 40 36 34 33 34 34 33 33 33 34 35 35 35 35 36
37 38 38 39 39 39 40 40 41 42 43 44 46 46 47 48 48 48 48 47 48 48 48 48 48 47 47 46 44 41 38 36 36 36 35 35 35 36 36 36 36 36
38 39 40 41 41 42 43 44 45 46 47 48 49 50 50 51 52 52 52 51 51 51 51 52 52 51 50 50 49 48 45 42 41 40 39 39 38 38 38 37 36 36
38 39 41 43 44 45 46 47 48 50 51 52 53 54 55 55 56 56 56 55 54 54 54 54 55 55 55 54 53 52 51 49 48 46 45 44 42 41 41 40 38 37
38 39 42 44 46 47 48 49 50 51 53 54 54 56 57 58 59 59 58 58 57 56 57 57 57 57 57 57 58 56 55 54 53 52 51 50 48 45 44 43 41 40
40 41 44 46 48 48 48 49 50 51 52 53 53 55 57 59 59 60 60 59 59 58 58 59 59 59 58 59 60 60 59 57 56 57 56 55 53 51 48 47 44 42
43 45 47 49 49 48 48 49 50 51 52 53 53 55 57 58 59 60 60 60 61 60 61 62 62 61 60 60 60 62 62 59 55 55 56 56 56 55 53 51 49 46
46 47 49 49 49 49 50 51 52 53 53 53 53 54 56 58 59 60 60 61 62 63 63 65 66 65 63 63 62 62 63 62 58 55 55 56 58 58 57 54 52 51
50 49 50 50 50 51 52 52 53 54 54 53 52 53 55 56 57 59 61 62 62 63 63 63 66 69 69 68 66 64 64 65 63 59 56 56 57 58 58 56 55 54
52 51 51 51 51 52 52 53 53 54 54 53 52 52 54 55 56 57 59 61 60 61 61 61 64 68 69 69 69 68 66 65 64 61 60 60 60 59 59 57 56 56
52 52 52 51 52 53 53 53 53 53 53 53 52 52 53 54 55 55 56 59 60 60 61 62 63 66 68 68 67 67 67 66 63 62 61 62 62 61 60 58 56 56
Wind_Direction
26 27 27 28 29 30 28 26 24 22 20 18 17 15 10 4 352 330 316 314 315 315 314 310 303 297 289 280 275 273 272 269 265 261 258 257 256 255 252 249 247 246
33 30 26 24 23 23 23 21 19 17 16 15 15 14 13 11 8 1 348 333 324 319 317 312 306 301 296 290 283 278 276 273 270 266 262 260 258 257 256 253 250 247
35 34 30 26 22 18 17 14 11 10 8 6 5 4 4 3 3 2 359 353 344 336 329 323 317 310 301 295 289 284 281 278 275 272 267 264 262 260 259 257 254 251
25 26 25 24 21 17 13 7 4 2 359 357 356 354 353 352 352 351 349 348 347 345 342 336 331 324 314 304 294 288 285 282 281 277 272 268 265 263 261 259 257 255
18 17 17 16 15 13 9 5 1 357 354 350 349 346 345 344 343 342 341 340 339 339 339 338 337 334 327 317 305 296 290 287 284 281 277 274 270 267 265 262 260 258
13 12 12 11 10 9 7 6 3 359 354 350 347 343 340 338 336 335 334 333 333 332 331 331 331 331 329 324 316 307 300 294 289 285 280 277 275 272 269 266 263 261
5 5 6 6 6 5 5 5 4 1 358 355 350 345 342 339 337 334 331 329 328 327 326 325 325 325 324 320 317 314 309 303 297 291 284 281 279 275 272 270 267 265
359 357 357 357 357 358 358 358 358 357 356 353 351 348 345 342 339 337 334 332 330 327 324 323 321 321 320 317 314 312 310 307 303 297 291 286 282 278 274 272 271 269
353 351 349 348 348 349 349 349 348 348 347 346 345 344 343 340 337 334 332 330 329 329 327 325 322 320 319 318 315 311 306 304 302 298 294 290 286 282 278 274 271 270
344 343 341 341 341 341 341 341 341 340 339 338 337 336 335 335 333 332 329 326 325 325 325 325 325 322 320 318 316 313 308 303 298 295 293 291 288 285 282 277 273 270
334 333 332 332 332 332 332 333 333 333 332 331 331 330 329 329 329 328 327 326 324 323 321 321 321 321 320 318 316 313 310 305 301 296 292 290 288 286 283 280 276 273
327 326 325 324 324 324 324 324 324 324 323 323 323 323 324 324 324 324 323 323 323 322 320 317 315 315 316 316 315 312 309 307 303 300 296 293 289 286 283 280 278 276
323 323 323 322 322 321 321 320 320 319 318 317 316 316 317 317 317 318 318 318 317 317 317 316 313 310 309 310 311 311 309 306 304 301 298 296 293 289 286 282 278 276
318 318 318 319 319 320 320 319 319 318 317 316 316 315 314 314 313 313 312 312 312 312 312 312 310 308 306 305 304 305 306 305 303 301 299 297 294 292 290 287 283 278
318 317 316 316 316 316 316 317 317 317 317 316 316 315 315 313 312 311 310 309 309 308 307 307 306 305 304 302 300 299 300 300 300 299 298 297 295 293 291 289 287 284
319 318 316 315 315 315 315 315 315 315 315 315 315 315 314 313 312 310 309 308 307 306 304 303 303 302 302 301 298 296 295 295 295 295 296 295 295 294 292 290 290 288
319 318 317 316 316 316 315 315 314 313 313 313 313 312 312 311 310 309 308 307 306 304 303 302 300 300 299 299 298 296 293 292 291 291 291 291 291 292 291 291 291 290
316 315 315 315 315 315 315 314 313 312 312 312 311 310 309 308 307 306 305 304 303 302 301 300 299 298 297 296 296 295 294 292 289 288 287 287 287 288 288 289 290 290
313 312 313 314 314 314 313 313 312 312 311 311 310 308 307 305 304 303 301 300 299 297 296 296 295 295 295 294 293 292 292 291 289 287 285 284 283 284 284 285 286 287
311 310 311 312 312 311 311 310 309 309 309 308 307 306 304 303 302 300 298 297 295 294 293 291 290 290 290 290 291 290 289 288 287 286 285 283 281 281 281 281 283 284
311 310 309 309 309 308 307 306 305 305 304 304 302 301 301 301 300 299 298 296 295 293 292 289 287 286 285 285 286 287 287 287 285 284 283 282 280 280 279 279 280 281
310 309 308 307 307 306 304 302 301 301 301 301 299 299 299 299 298 298 297 296 295 294 293 291 288 286 285 283 282 282 284 284 283 281 281 280 279 278 278 278 278 279
309 307 307 306 305 304 302 302 301 301 301 300 298 297 297 296 296 295 295 294 293 292 291 290 289 288 286 284 282 280 280 280 279 278 277 277 277 277 276 276 276 277
308 307 307 306 306 305 304 304 303 302 300 299 296 294 294 294 293 292 292 291 290 289 288 287 286 287 286 284 282 279 277 276 276 276 275 274 274 274 274 274 273 274
309 309 309 308 307 306 305 304 302 301 300 299 297 294 293 293 292 291 290 290 288 287 285 283 282 283 283 281 280 278 275 273 273 273 273 272 271 272 272 272 272 272
311 311 311 310 308 307 306 305 304 303 302 301 300 298 296 294 292 290 289 288 287 284 283 281 280 280 280 280 279 278 276 274 273 272 271 270 270 270 270 270 270 270